www.pogodaiklimat.ru

Погода и климат >> Архив погоды >> Россия >> Красноярский край >> Советская Речка


ПОГОДА в Советской Речке

  • Прогноз погоды в Советской Речке
  • Монитор погоды в Советской Речке

АРХИВ ПОГОДЫ в Советской Речке

Время (UTC), дата Ветер
(напр.,м/с)
 
Видим.   Явления Облачность Т
(С)
Тd
(С)
f
(%)
Тe
(С)
Тes
(С)
Комфортность P
(гПа)
Po
(гПа)
Тmin
(С)
Tmax
(С)
R
(мм)
R24
(мм)
S
(см)
18 18.05 В 5 20 км 2 балла +3.5 -4.0 58 -1 -1 1012.3 1006.7
21 18.05 В 5 20 км 9 баллов +2.4 -3.5 65 -3 -3 1010.9 1005.3
00 19.05 В 5
{10}
20 км 10/10 600 м
[Sc]
+2.8 -0.5 79 -2 -2 1007.7 1002.2 +2.4 89
03 19.05 В 5 10 км слаб. дождь 10 баллов +3.6 +0.5 80 -1 -1 1006.9 1001.3
06 19.05 В 5 20 км 10 баллов +5.8 +2.6 80 +1 +1 1005.5 1000.0
09 19.05 В 5 20 км 10 баллов +5.2 +2.0 80 +1 +1 1004.2 998.7
12 19.05 В 4 20 км 10/10 600 м
[Sc]
+5.0 +1.7 79 +1 +1 1002.8 997.3 +5.8 0.0
15 19.05 В 3 10 км слаб. дождь 10 баллов +6.8 +5.9 94 +4 +4 1002.8 997.3
18 19.05 В 3 10 км слаб. дождь 10 баллов +7.4 +6.5 94 +4 +4 1001.5 996.0
21 19.05 В 3 20 км 10 баллов +2.8 +1.2 89 -1 -1 1000.2 994.7
00 20.05 В 2 10 км слаб. дождь 10/0 600 м
[As op]
+3.6 +2.6 93 +1 +1 998.8 993.4 +2.6 2 75
03 20.05 В 1 4000 м дымка 10 баллов +3.2 +2.2 93 +2 +2 1000.2 994.7
06 20.05 СВ 1 4000 м дымка 10 баллов +3.8 +2.6 92 +2 +2 998.8 993.3
09 20.05 штиль 0 200 м туман 10 баллов +4.2 +3.5 95 +3 +3 1000.2 994.7
12 20.05 штиль 0 1000 м туман 10/10 600 м
[Sc]
+4.8 +3.6 92 +4 +4 1000.3 994.9 +5.1 0.5
15 20.05 З 1 50 м слаб. дождь н/о +2.7 +1.8 94 +1 1001.6 996.0
18 20.05 СВ 1 500 м слаб. дождь {туман} туман 10/0 600 м
[As op]
+1.8 +1.0 94 -0 -0 999.2 993.7
21 20.05 С 2 20 км 10 баллов +0.3 -0.8 92 -3 -3 998.9 993.3
00 21.05 С 4 20 км {дождь, туман} 10/10 600 м
[Sc]
-5.2 -7.7 83 -12 -12 997.6 991.9 -5.2 2 72
03 21.05 С 3 20 км 10 баллов -5.7 -8.3 82 -11 -11 997.7 992.0 -6.8
06 21.05 СЗ 3 20 км 10 баллов -3.6 -6.1 83 -9 -9 997.7 992.0
09 21.05 С 3 20 км 10 баллов -3.1 -5.7 82 -8 -8 997.7 992.0
12 21.05 С 3 20 км 10/10 600 м
[Sc]
-2.6 -5.6 80 -8 -8 998.0 992.3 -2.6
15 21.05 С 3 20 км 10 баллов -2.7 -5.3 82 -8 -8 999.0 993.3
18 21.05 С 3 4000 м дымка 10 баллов -2.0 -2.8 94 -7 -7 998.9 993.3
21 21.05 С 4 20 км 10 баллов -1.9 -3.5 89 -8 -8 998.9 993.3
00 22.05 С 3 20 км 10/10 600 м
[Sc]
-3.2 -5.3 85 -8 -8 997.5 991.8 -3.2 70
03 22.05 С 3 10 км слаб. снег 10 баллов -3.0 -5.5 83 -8 -8 999.0 993.3
06 22.05 СЗ 3 10 км слаб. снег 10 баллов -2.8 -5.1 84 -8 -8 999.0 993.3
09 22.05 СЗ 3 10 км слаб. снег 10 баллов -3.0 -6.8 75 -8 -8 1001.7 996.0
12 22.05 С 5 20 км {снег} 10/10 600 м
[Sc]
-3.4 -7.0 76 -10 -10 1001.0 995.3 -2.8 0.2
15 22.05 С 5 20 км 10 баллов -3.6 -5.4 87 -11 -11 1003.0 997.3
18 22.05 СЗ 4 20 км 9 баллов -5.2 -7.6 83 -12 -12 1003.0 997.3
21 22.05 СЗ 4 20 км 10 баллов -6.4 -8.3 86 -13 -13 1003.1 997.3
00 23.05 СЗ 4 20 км 10/10 600 м
[Sc]
-6.8 -9.2 83 -13 -13 1002.0 996.3 -6.8 70
03 23.05 СЗ 4 10 км слаб. снег 10 баллов -6.2 -8.9 81 -13 -13 1003.1 997.3
06 23.05 З 4 20 км 10 баллов -5.0 -7.7 81 -11 -11 1004.4 998.7
09 23.05 СЗ 4 20 км 10 баллов -2.8 -8.1 67 -8 -8 1005.7 1000.0
12 23.05 З 5 20 км 10/10 600 м
[Sc]
-2.6 -7.4 70 -9 -9 1006.3 1000.6 -2.6 0.2
15 23.05 З 4 20 км 7 баллов -3.1 -7.6 71 -9 -9 1008.4 1002.7
18 23.05 З 2 20 км 6 баллов -6.0 -8.7 81 -10 -10 1008.5 1002.7
21 23.05 СЗ 3 20 км 10 баллов -7.5 -9.7 84 -13 -13 1009.8 1004.0
00 24.05 З 1 20 км 10/10 600 м
[Sc]
-5.8 -8.0 84 -8 -8 1008.5 1002.8 -7.5 70
03 24.05 ЮВ 3 20 км 2 балла -2.8 -7.0 73 -8 -3 1009.7 1004.0
06 24.05 В 4 20 км 9 баллов +0.2 -6.0 63 -5 -4 1008.4 1002.7
09 24.05 ЮВ 5 20 км 4 балла +5.1 -4.7 49 +1 +4 1006.8 1001.3
12 24.05 ЮВ 5
{10}
20 км 8/0
[Cs]
+7.0 -2.6 50 +4 +5 1003.6 998.1 +7.0
15 24.05 ЮВ 4 20 км 10 баллов +6.8 -1.9 54 +4 +4 1004.2 998.7
18 24.05 ЮВ 4 20 км 10 баллов +5.2 -1.3 63 +2 +2 1001.5 996.0
21 24.05 ЮВ 5 20 км 10 баллов +4.8 -2.5 59 +1 +1 1000.2 994.7
00 25.05 ЮВ 3 10 км слаб. дождь 10/10 600 м
[Sc]
+3.6 +0.4 80 -0 -0 998.0 992.3 +3.6 0.0 67
03 25.05 ЮВ 4 10 км слаб. дождь 10 баллов +3.4 +2.7 95 -1 -1 997.5 992.0
06 25.05 З 5 20 км 10 баллов +1.8 +0.6 92 -4 -4 1000.3 994.7
09 25.05 З 4 20 км 10 баллов +2.0 -2.0 75 -3 -3 997.6 992.0
12 25.05 З 3 4000 м слаб. ливневой снег 10/10 600 м
[Cb cap]
+1.4 -3.1 72 -3 -3 1001.8 996.2 -3.6 0.6
15 25.05 В 1 20 км 7 баллов +0.1 -2.3 84 -2 -2 1002.9 997.3

 

Местоположение метеостанции Советская Речка (Красноярский край, Россия): широта 66.82 долгота 83.80 высота над уровнем моря 45 м.

В архиве по умолчанию представлена погода в Советской Речке за последнюю неделю. Архивные данные за месяц целиком и за предыдущие месяцы, начиная с января 2011 года, Вы можете получить, выбрав интересующий диапазон дат из раскрывающегося списка и нажав кнопку "Ввод!".


*Определитесь, кто Вы:
робот инопланетянин человек

Внимание! Время в таблицах - всемирное. Для получения местного времени необходимо прибавить поправку, которая равна 7 ч.

Смотрите также архив погоды в соседних городах и на ближайших метеорологических станциях:

Погода в Красноселькупске (Ямало-Ненецкий АО, Россия) (138 км)
Погода в Игарке (Красноярский край, Россия) (140 км)
Погода в Курейке (Красноярский край, Россия) (156 км)
Погода в Горбиачине (Красноярский край, Россия) (189 км)
Погода в Светлогорске (Красноярский край, Россия) (202 км)
Погода в Туруханске (Красноярский край, Россия) (218 км)
Погода в Снежногорске (Красноярский край, Россия) (221 км)
Погода в Потапово (Красноярский край, Россия) (230 км)
Погода в Тазовском (Ямало-Ненецкий АО, Россия) (231 км)
Погода в Уренгое (Ямало-Ненецкий АО, Россия) (259 км)

Пояснения к столбцам:

Ветер - указаны скорость ветра в м/с - средняя за 10 мин, порывы в срок и между сроками (в фигурных скобках) и направление, откуда дует ветер: С - северный, СВ - северо-восточный, В - восточный, ЮВ - юго-восточный, Ю - южный, ЮЗ - юго-западный, З - западный, СЗ - северо-западный.
Видимость - горизонтальная дальность видимости в метрах или километрах. При видимости от 1 до 10 км при отсутствии осадков обычно наблюдается дымка, при ухудшении видимости до 1 км и менее - туман. В сухую погоду видимость может ухудшаться дымом, пылью или мглою.
Явления - указаны атмосферные явления, наблюдавшиеся в срок или в последний час перед сроком; фигурными скобками обозначены явления, наблюдавшиеся между сроками (за 1-3 часа до срока); квадратными скобками обозначены град или гололедные отложения с указанием их диаметра в мм.
Облачность - указаны через наклонную черту общая и нижняя облачность в баллах и высота нижней границы облаков в метрах; квадратными скобками обозначены формы облаков: Ci - перистые, Cs - перисто-слоистые, Cc - перисто-кучевые, Ac - высококучевые, As - высокослоистые, Sc - слоисто-кучевые, Ns - слоисто-дождевые, Cu - кучевые, Cb - кучево-дождевые. Подробнее классификацию облаков см. в Атласе облаков (PDF).
T - Температура воздуха - температура, измеренная на высоте 2 м над землей.
Td - Температура точки росы - температура, при понижении до которой содержащийся в воздухе водяной пар достигнет насыщения.
f - Относительная влажность воздуха - влажноcть воздуха, измеренная на высоте 2 м над землей.
Te - Эффективная температура - температура, которую ощущает одетый по сезону человек в тени. Характеристика душности погоды. При расчете учитывается влияние влажности воздуха и скорости ветра на теплоощущения человека.
Tes - Эффективная температура на солнце - температура, которую ощущает человек, с поправкой на солнечный нагрев. Характеристика знойности погоды. Зависит от высоты солнца над горизонтом, облачности и скорости ветра. Ночью, в пасмурную погоду, а также при ветре 12 м/с и более поправка равна нулю.
P - Атмосферное давление - приведенное к уровню моря атмосферное давление.
Po - Атмосферное давление - измеренное на уровне метеостанции атмосферное давление.
Tmin - Минимальная температура - минимум температуры воздуха на высоте 2 м над землей.
Tmax - Максимальная температура - максимум температуры воздуха на высоте 2 м над землей.
R - Количество осадков - Количество выпавших осадков за период времени, мм. При наведении курсора мыши на число - период времени, за который выпало указанное количество осадков.
R24 - Количество осадков - Количество выпавших осадков за 24 часа, мм.
S - Снежный покров - Высота снежного покрова, см. При наведении курсора мыши на число - состояние снежного покрова и степень покрытия местности в баллах.